Weather History for Caslav, Czech Republic

Change the Weather History Date:

Monday, September 9, 2013

  Actual Average Record
Temperature  
Mean Temperature 61 °F -  
Max Temperature 69 °F - - ()
Min Temperature 50 °F - - ()
Degree Days  
Heating Degree Days 4    
Growing Degree Days 11 (Base 50)    
Moisture  
Dew Point 51 °F    
Average Humidity 67    
Maximum Humidity 100    
Minimum Humidity 43    
Precipitation  
Precipitation 0.00 in - - ()
Sea Level Pressure  
Sea Level Pressure 30.00 in    
Wind  
Wind Speed 7 mph ()    
Max Wind Speed 17 mph    
Max Gust Speed -    
Visibility 6.0 miles    
Events Rain    
T = Trace of Precipitation, MM = Missing Value Source: Averaged Metar Reports

Daily Weather History Graph

Daily Weather History Graph

Search for Another Location

Airport:

Trip Planner

Search our weather history database for the weather conditions in past years. The results will help you decide how hot, cold, wet, or windy it might be!

Date:

Astronomy

Sep. 09, 2013 Rise Set
Actual Time 6:25 AM CEST 7:25 PM CEST
Civil Twilight 5:52 AM CEST 7:57 PM CEST
Nautical Twilight 5:12 AM CEST 8:37 PM CEST
Astronomical Twilight 4:30 AM CEST 9:19 PM CEST
Moon 10:57 AM CEST (9/9) 8:58 PM CEST (9/9)
Length of Visible Light 14h 05m
Length of Day
12h 59m
Waxing Crescent, 16% of the Moon is Illuminated
Sep 9
Waxing Crescent
Sep 12
First Quarter
Sep 19
Full
Sep 27
Last Quarter
Oct 5
New

Hourly Weather History & Observations

Time (CEST) Temp. Dew Point Humidity Pressure Visibility Wind Dir Wind Speed Gust Speed Precip Events Conditions
12:00 AM 68.0 °F 48.2 °F 49% 30.01 in - Variable 2.3 mph - N/A   Clear
1:00 AM 69.8 °F 46.4 °F 43% 29.98 in - SE 3.5 mph - N/A   Clear
2:00 AM 68.0 °F 48.2 °F 49% 29.95 in - SE 5.8 mph - N/A   Clear
3:00 AM 68.0 °F 48.2 °F 49% 29.95 in - Variable 2.3 mph - N/A   Clear
4:00 AM 66.2 °F 44.6 °F 46% 29.92 in - ESE 5.8 mph - N/A   Clear
5:00 AM 66.2 °F 44.6 °F 46% 29.89 in - SE 8.1 mph - N/A   Clear
6:00 AM 64.4 °F 44.6 °F 49% 29.89 in - SSE 6.9 mph - N/A   Clear
7:00 AM 64.4 °F 44.6 °F 49% 29.89 in - South 9.2 mph - N/A   Clear
8:00 AM 62.6 °F 51.8 °F 68% 29.92 in 5.0 mi SW 13.8 mph - N/A Rain Light Rain
9:00 AM 60.8 °F 59.0 °F 94% 29.92 in 6.2 mi South 4.6 mph - N/A Rain Light Rain
10:00 AM 64.4 °F 60.8 °F 88% 29.95 in - WSW 6.9 mph - N/A   Clear
11:00 AM 59.0 °F 59.0 °F 100% 29.98 in 6.2 mi West 16.1 mph - N/A Rain Light Rain
12:00 PM 64.4 °F 60.8 °F 88% 30.01 in 6.2 mi West 15.0 mph - N/A   Mostly Cloudy
1:00 PM 64.4 °F 59.0 °F 83% 30.01 in 6.2 mi West 15.0 mph - N/A   Mostly Cloudy
2:00 PM 62.6 °F 57.2 °F 82% 30.04 in 6.2 mi West 12.7 mph - N/A Rain Light Rain Showers
3:00 PM 68.0 °F 57.2 °F 68% 30.04 in 6.2 mi WNW 13.8 mph - N/A   Mostly Cloudy
4:00 PM 68.0 °F 51.8 °F 56% 30.04 in 6.2 mi West 16.1 mph - N/A   Scattered Clouds
5:00 PM 66.2 °F 50.0 °F 56% 30.04 in - West 17.3 mph - N/A   Clear
6:00 PM 64.4 °F 44.6 °F 49% 30.06 in - West 16.1 mph - N/A   Clear
7:00 PM 60.8 °F 48.2 °F 63% 30.06 in - West 9.2 mph - N/A   Clear
8:00 PM 57.2 °F 48.2 °F 72% 30.06 in - WSW 5.8 mph - N/A   Clear
9:00 PM 55.4 °F 50.0 °F 82% 30.09 in - WNW 6.9 mph - N/A   Clear
10:00 PM 53.6 °F 50.0 °F 88% 30.09 in - WSW 4.6 mph - N/A   Clear
11:00 PM 50.0 °F 48.2 °F 94% 30.09 in - SW 4.6 mph - N/A   Clear